Wind_Speed
4 4 5 5 5 5 6 6 6 6 6 6 6 7 7 7 8 8 10 9 10 10 10 11 11 10 10 10 10 10 10 10 9 8 8 8 9 8 7 7 6 6 5
6 5 5 5 6 6 6 6 6 6 6 6 6 7 7 8 7 8 9 9 10 11 11 10 10 10 9 10 10 10 9 9 9 8 8 8 8 8 6 6 6 6 5
6 6 6 6 6 5 5 5 6 6 6 6 7 7 6 7 8 8 8 10 11 10 10 10 9 9 9 9 9 9 9 9 8 7 8 8 8 7 6 6 6 5 5
7 6 7 7 6 6 5 5 5 6 6 6 7 7 7 7 8 8 9 10 10 10 9 9 9 9 8 9 8 8 8 8 7 7 7 7 7 6 5 5 5 5 5
8 8 8 8 7 6 6 6 6 6 6 6 7 7 7 7 8 9 9 9 9 9 9 8 8 8 8 8 8 7 7 7 7 7 7 6 6 5 5 5 5 5 4
8 8 8 8 8 7 6 7 7 6 5 6 7 7 7 7 8 9 9 8 8 8 8 8 7 7 7 7 7 6 6 7 7 6 6 5 5 5 5 5 5 4 4
9 8 9 9 9 8 8 7 7 6 5 5 7 8 7 8 8 8 8 8 7 7 7 7 7 6 7 6 6 6 6 6 6 6 5 5 5 4 4 4 4 4 3
10 9 9 9 10 9 8 7 7 6 5 6 6 7 8 8 8 8 8 7 7 7 7 6 6 6 6 6 5 5 5 5 5 5 5 4 4 3 3 3 3 2 2
11 10 10 10 10 10 9 7 6 5 5 6 7 8 8 8 8 8 7 7 7 6 6 6 6 7 6 5 5 5 5 5 4 4 4 4 4 3 3 2 1 1 2
12 11 11 10 10 10 9 8 8 7 7 8 8 8 8 8 7 7 7 7 6 6 6 6 6 6 6 5 5 5 4 3 3 4 3 3 2 2 2 2 1 2 2
13 12 11 11 10 10 10 10 9 8 9 9 9 8 8 8 7 7 7 7 6 6 6 6 5 5 6 5 5 4 3 2 2 2 3 2 2 2 3 2 2 1 2
13 12 11 11 10 9 9 9 9 9 8 8 8 8 8 8 8 8 7 6 6 6 6 6 5 5 5 4 4 3 2 1 1 2 2 2 1 1 1 1 2 1 1
14 13 12 11 11 10 9 9 9 8 8 8 9 9 9 9 8 8 7 7 7 7 6 6 5 4 4 4 3 2 2 1 0 1 1 1 0 0 0 1 0 0 1
14 14 13 13 12 11 10 9 9 8 8 7 8 8 8 7 7 7 7 7 6 6 5 5 5 4 4 3 3 2 1 1 0 1 1 1 1 1 1 1 1 1 2
14 13 12 12 12 11 11 10 10 9 8 7 8 8 7 6 6 7 6 6 6 5 5 4 4 3 3 2 2 1 1 1 0 1 1 1 1 1 1 1 2 3 3
13 13 12 11 11 11 11 10 10 9 8 7 7 7 7 6 7 6 6 6 6 5 4 4 4 3 3 3 2 1 1 1 1 1 2 2 3 2 2 2 2 3 4
13 13 12 11 10 10 10 10 10 10 8 8 7 6 7 8 7 6 6 6 6 5 4 4 3 3 2 2 2 1 2 1 2 2 2 3 2 2 3 3 3 4 4
12 12 12 11 10 9 9 9 10 10 9 8 7 6 7 8 7 7 6 5 5 4 4 4 3 3 2 2 1 2 2 2 2 2 3 3 3 3 4 4 3 4 4
12 12 11 11 11 10 9 9 8 8 8 8 7 7 7 7 7 7 6 5 4 3 3 3 2 2 1 1 2 2 2 3 3 3 3 3 3 4 4 4 4 5 6
12 12 11 11 11 11 9 9 9 8 8 8 8 7 7 6 6 6 6 5 4 3 3 3 2 1 1 1 2 3 3 3 3 4 4 4 5 5 5 5 5 6 6
12 12 11 11 10 10 9 9 8 8 7 7 7 7 6 5 5 5 5 3 3 3 2 1 1 1 2 2 3 4 3 4 4 4 4 5 5 5 5 5 6 7 7
12 12 11 11 10 10 9 8 8 8 7 7 6 6 5 5 5 4 3 3 3 3 2 2 1 2 3 3 4 4 4 4 4 4 5 5 5 5 5 6 7 8 7
11 11 11 11 10 10 9 8 7 7 7 6 6 5 5 5 5 4 3 3 3 3 2 2 2 3 3 3 3 3 4 4 5 5 5 5 5 5 6 7 7 8 8
11 10 10 10 9 9 8 7 7 6 6 6 5 4 5 5 4 4 3 2 2 2 2 2 2 3 3 3 3 3 4 4 5 5 5 5 6 6 7 7 8 8 8
10 10 9 8 8 8 8 7 6 6 5 5 5 4 4 4 3 3 3 3 2 2 2 2 2 3 3 4 4 4 4 5 5 5 6 6 7 8 8 8 9 9 10
9 9 8 7 7 7 7 7 7 6 5 4 4 4 4 4 3 3 3 3 2 2 2 3 3 3 3 4 4 5 5 5 5 6 7 8 9 9 9 9 10 10 10
Wind_Direction
119 135 137 137 146 143 149 154 151 153 148 144 145 146 149 144 138 137 139 136 132 127 119 117 115 117 117 118 118 119 122 125 128 130 125 129 132 131 126 123 121 114 111
111 114 126 130 141 136 140 147 151 156 149 144 141 143 146 147 142 140 142 140 133 129 125 122 120 120 120 115 115 118 122 125 126 126 127 129 127 127 124 118 117 113 110
101 102 110 125 126 130 130 133 147 150 148 145 142 145 148 146 142 141 144 137 135 129 126 125 122 124 124 121 119 119 122 124 122 121 124 124 122 120 112 112 115 112 105
96 105 106 111 116 118 117 122 136 144 145 145 144 148 152 148 141 140 142 142 136 131 130 129 127 125 125 125 122 118 120 125 125 123 124 122 120 114 104 105 112 114 106
97 102 108 109 114 117 117 120 127 131 140 144 144 147 149 145 141 139 138 140 137 136 134 133 132 129 129 127 125 123 125 127 125 126 128 122 118 109 102 104 106 109 105
95 97 105 108 111 112 114 120 124 128 136 144 145 149 149 146 143 141 144 146 143 141 139 137 135 131 130 127 126 126 129 129 126 127 126 121 115 108 105 107 108 108 102
94 94 98 102 102 103 106 113 119 125 135 146 152 157 158 154 148 145 148 146 144 143 142 138 134 131 134 129 122 122 128 133 129 130 128 126 123 117 115 114 113 109 99
89 91 95 98 99 99 103 109 112 118 129 138 144 149 151 152 152 149 148 147 147 144 143 141 138 137 135 127 120 122 127 130 131 128 131 128 126 120 117 118 115 109 122
83 87 91 95 96 95 96 99 104 109 119 131 140 143 145 146 150 149 145 146 147 147 146 144 141 140 135 131 128 125 122 125 135 128 135 138 132 126 126 128 113 103 151
84 84 89 92 95 94 91 94 103 104 110 121 130 137 140 141 145 146 145 144 145 146 148 147 145 142 137 136 138 134 125 125 132 138 136 146 145 135 124 117 126 128 137
83 85 88 90 92 93 93 93 99 102 106 116 124 132 137 138 142 143 145 144 143 143 146 154 149 143 141 143 144 140 131 125 130 130 130 139 146 130 98 96 102 126 135
77 77 83 86 88 89 92 92 99 101 106 112 118 123 129 131 134 141 146 147 145 145 151 156 155 147 145 145 150 152 143 140 135 138 139 140 136 139 129 102 78 93 128
73 74 80 84 85 87 89 90 96 102 108 111 112 117 123 127 135 141 145 144 149 154 152 148 152 150 150 148 157 161 151 129 125 171 189 188 168 182 200 195 193 154 175
70 71 74 82 86 88 89 89 93 101 104 111 118 121 125 125 135 146 150 154 157 153 145 142 148 158 154 161 165 167 159 136 108 166 183 188 244 250 224 250 246 236 232
71 69 71 75 81 84 83 84 89 96 97 110 120 122 118 117 129 142 152 158 157 154 158 160 155 154 161 174 172 174 164 182 232 221 206 226 274 295 286 278 263 255 252
69 70 72 77 80 82 85 83 83 90 100 109 114 117 116 121 123 129 136 142 151 157 152 144 135 133 152 159 166 176 183 209 253 252 260 273 269 270 284 270 272 265 258
64 67 73 78 77 81 81 77 79 84 93 102 111 115 117 121 122 120 125 128 138 150 152 150 149 146 143 164 185 209 229 253 270 285 293 296 283 272 275 277 274 274 274
60 63 68 73 74 77 80 82 83 81 91 97 100 109 116 118 121 121 126 131 136 144 155 160 162 157 159 194 224 238 243 267 271 292 303 297 289 287 279 279 277 271 279
60 61 63 67 71 77 82 83 81 82 90 95 95 102 114 119 122 121 128 138 146 151 159 167 168 183 205 217 238 261 275 280 277 289 295 294 291 291 282 274 273 277 278
58 60 62 65 69 75 81 82 82 81 90 99 99 102 110 121 127 130 134 128 140 150 158 173 179 210 248 274 290 294 289 294 284 292 296 295 295 292 285 279 280 283 280
55 59 61 61 67 73 77 77 75 73 77 90 100 105 114 119 121 120 122 115 113 118 113 94 143 255 295 315 315 309 304 304 291 291 290 293 294 292 292 290 289 290 287
53 55 56 60 66 71 73 72 71 73 75 81 91 102 105 109 106 100 98 96 83 78 69 49 28 322 309 298 302 308 311 311 307 300 297 297 297 297 292 296 292 293 291
49 52 53 57 63 68 70 68 67 72 77 82 82 84 85 94 86 81 85 84 77 71 61 47 15 1 353 334 320 318 315 319 319 315 312 311 311 308 304 304 299 291 289
39 47 52 55 58 58 61 64 65 67 77 76 78 80 78 74 75 75 77 79 73 60 43 28 11 1 0 357 343 337 334 328 325 321 322 323 320 315 309 304 300 295 291
32 34 44 52 56 56 56 59 61 68 70 63 61 68 70 65 56 58 54 44 42 42 31 13 358 350 349 347 341 333 333 331 327 325 323 318 316 315 311 307 302 300 296
25 31 40 49 56 52 49 52 53 64 68 57 54 51 53 50 46 45 49 46 41 36 23 15 4 349 347 343 338 332 329 331 331 327 321 317 313 311 311 309 303 300 296
Height
5866 5866 5866 5867 5867 5868 5869 5870 5870 5871 5872 5872 5873 5874 5874 5875 5876 5876 5877 5877 5878 5878 5879 5879 5879 5879 5880 5881 5881 5882 5882 5883 5883 5883 5883 5883 5883 5884 5884 5884 5884 5884 5884
5867 5866 5866 5867 5867 5869 5869 5870 5870 5871 5872 5873 5874 5874 5875 5876 5877 5877 5877 5878 5879 5880 5880 5881 5881 5881 5882 5882 5883 5883 5883 5884 5884 5884 5884 5884 5884 5884 5884 5884 5885 5885 5885
5867 5867 5867 5867 5868 5869 5869 5870 5870 5871 5872 5873 5874 5875 5876 5877 5878 5878 5879 5879 5880 5881 5882 5882 5883 5883 5883 5884 5884 5884 5885 5885 5885 5885 5885 5885 5885 5885 5885 5885 5885 5885 5886
5868 5868 5868 5868 5869 5869 5870 5870 5871 5871 5872 5873 5874 5875 5876 5877 5878 5879 5880 5881 5881 5882 5883 5884 5884 5885 5885 5885 5885 5886 5886 5886 5886 5886 5886 5887 5887 5886 5886 5886 5886 5886 5886
5869 5869 5869 5869 5870 5870 5870 5871 5871 5872 5873 5873 5875 5876 5877 5878 5879 5880 5881 5882 5883 5884 5884 5885 5885 5886 5886 5886 5886 5886 5886 5887 5887 5887 5887 5888 5888 5887 5887 5887 5887 5887 5887
5870 5870 5870 5870 5870 5870 5871 5871 5872 5873 5873 5874 5875 5876 5878 5879 5880 5881 5882 5883 5884 5885 5885 5886 5886 5886 5887 5887 5887 5887 5887 5887 5888 5888 5888 5888 5888 5888 5888 5888 5888 5888 5887
5871 5871 5871 5871 5871 5871 5872 5872 5873 5873 5874 5875 5876 5877 5878 5879 5881 5882 5883 5884 5885 5885 5886 5887 5887 5887 5888 5888 5888 5888 5888 5888 5888 5888 5888 5889 5889 5889 5889 5889 5888 5888 5888
5872 5872 5872 5872 5872 5872 5872 5873 5873 5874 5874 5875 5876 5878 5879 5880 5881 5882 5883 5884 5885 5886 5887 5887 5888 5888 5888 5888 5889 5889 5889 5889 5889 5889 5889 5889 5889 5889 5889 5889 5889 5888 5888
5874 5874 5874 5874 5874 5873 5873 5873 5874 5874 5874 5875 5876 5878 5879 5880 5882 5883 5884 5885 5886 5887 5887 5888 5888 5889 5889 5889 5889 5890 5890 5890 5890 5890 5889 5889 5890 5890 5889 5889 5889 5888 5888
5876 5876 5876 5875 5875 5875 5875 5873 5874 5874 5875 5876 5877 5878 5880 5881 5882 5883 5885 5885 5886 5887 5888 5889 5889 5889 5890 5890 5890 5890 5890 5890 5890 5890 5890 5890 5890 5889 5889 5889 5889 5888 5888
5878 5878 5877 5877 5877 5877 5876 5875 5875 5876 5877 5877 5878 5879 5880 5881 5882 5884 5885 5886 5887 5888 5888 5889 5889 5890 5890 5891 5891 5891 5891 5891 5890 5890 5890 5890 5890 5890 5889 5889 5889 5888 5888
5880 5880 5879 5879 5878 5878 5878 5878 5878 5878 5878 5879 5879 5879 5880 5881 5883 5884 5885 5886 5887 5888 5889 5889 5890 5891 5891 5891 5891 5891 5891 5891 5890 5891 5891 5890 5890 5890 5890 5889 5889 5889 5888
5883 5882 5882 5881 5880 5880 5880 5880 5880 5879 5880 5880 5880 5881 5881 5882 5883 5884 5885 5886 5887 5888 5889 5889 5890 5891 5891 5891 5891 5891 5891 5891 5891 5891 5891 5890 5890 5890 5889 5889 5889 5888 5888
5885 5885 5884 5883 5883 5882 5881 5881 5881 5881 5881 5881 5882 5882 5883 5884 5884 5885 5886 5887 5888 5888 5889 5890 5890 5891 5891 5891 5892 5892 5892 5891 5891 5891 5891 5890 5890 5890 5889 5889 5888 5888 5887
5888 5887 5886 5885 5885 5884 5884 5883 5883 5883 5883 5883 5883 5883 5884 5885 5885 5886 5886 5887 5888 5889 5890 5890 5890 5891 5891 5892 5892 5892 5892 5891 5891 5891 5891 5890 5890 5889 5889 5888 5888 5887 5887
5890 5889 5888 5888 5887 5886 5886 5885 5884 5884 5884 5884 5884 5885 5885 5886 5886 5887 5887 5888 5888 5889 5890 5890 5891 5891 5891 5891 5892 5892 5892 5891 5891 5891 5890 5890 5889 5889 5888 5887 5887 5886 5886
5892 5891 5890 5889 5888 5888 5887 5887 5886 5886 5885 5885 5885 5886 5886 5886 5887 5888 5888 5889 5889 5890 5890 5891 5891 5892 5892 5892 5892 5892 5891 5891 5891 5890 5890 5889 5888 5888 5887 5886 5886 5886 5885
5894 5893 5892 5891 5890 5890 5889 5889 5888 5887 5887 5887 5887 5887 5887 5887 5888 5888 5889 5890 5890 5890 5891 5891 5892 5892 5892 5891 5891 5891 5891 5891 5890 5890 5889 5888 5888 5887 5886 5886 5885 5884 5884
5896 5895 5894 5893 5892 5891 5891 5890 5890 5889 5889 5888 5888 5888 5888 5888 5889 5889 5890 5890 5891 5891 5891 5892 5892 5892 5892 5892 5891 5891 5891 5890 5890 5889 5888 5887 5887 5886 5885 5885 5884 5883 5882
5898 5897 5895 5894 5894 5893 5893 5892 5892 5891 5890 5890 5889 5889 5889 5890 5890 5890 5890 5891 5891 5891 5892 5892 5891 5891 5891 5891 5891 5890 5890 5889 5889 5888 5887 5886 5885 5885 5884 5883 5882 5882 5880
5900 5898 5897 5896 5895 5894 5894 5893 5893 5892 5892 5891 5891 5890 5890 5891 5891 5890 5891 5891 5891 5891 5891 5891 5891 5891 5891 5891 5890 5889 5889 5888 5888 5887 5886 5885 5884 5883 5882 5882 5881 5880 5879
5901 5900 5899 5898 5897 5896 5895 5895 5894 5893 5893 5892 5892 5892 5892 5891 5891 5891 5892 5892 5892 5891 5891 5891 5890 5890 5890 5890 5889 5889 5888 5888 5887 5886 5885 5884 5882 5882 5881 5880 5879 5878 5877
5903 5902 5900 5899 5898 5897 5897 5896 5895 5895 5894 5894 5893 5893 5892 5892 5892 5892 5892 5892 5892 5891 5891 5890 5890 5890 5889 5889 5888 5888 5887 5886 5885 5885 5883 5882 5881 5880 5879 5878 5877 5876 5875
5905 5903 5902 5900 5899 5898 5898 5897 5896 5896 5895 5895 5894 5893 5893 5893 5892 5892 5892 5892 5892 5891 5891 5890 5890 5889 5889 5888 5887 5887 5886 5885 5884 5883 5882 5881 5880 5879 5878 5877 5875 5874 5873
5906 5904 5903 5901 5900 5900 5898 5897 5897 5896 5896 5896 5895 5894 5894 5893 5893 5892 5892 5892 5891 5890 5890 5889 5889 5888 5888 5887 5886 5886 5885 5884 5883 5882 5881 5880 5879 5877 5876 5875 5873 5872 5870
5907 5905 5903 5902 5901 5900 5899 5897 5897 5897 5897 5896 5895 5894 5894 5893 5893 5892 5891 5891 5890 5890 5889 5888 5888 5887 5887 5886 5885 5884 5883 5882 5881 5880 5879 5878 5877 5875 5874 5872 5871 5870 5868